This is the latest recevied weather packets stored in our database for station/object KR4KUV. If no packets are shown the sender has not sent any weather packets the latest 10 day(s).
| Time | Temp. | Humidity | Pressure | Rain* | Wind** | Luminosity | Snow |
|---|---|---|---|---|---|---|---|
| 1788033356 | 30.56° C | 66% | 1022.2 hPa | 0 mm | - | 592 W/m² | - |
| 1788033051 | 30.56° C | 66% | 1022.2 hPa | 0 mm | - | 621 W/m² | - |
| 1788032746 | 30.56° C | 68% | 1022.3 hPa | 0 mm | - | 596 W/m² | - |
| 1788032441 | 30.56° C | 66% | 1022.1 hPa | 0 mm | - | 555 W/m² | - |
| 1788032137 | 30° C | 69% | 1022.2 hPa | 0 mm | - | 588 W/m² | - |
| 1788031833 | 30.56° C | 68% | 1022.6 hPa | 0 mm | - | 616 W/m² | - |
| 1788031532 | 30° C | 67% | 1022.5 hPa | 0 mm | - | 592 W/m² | - |
| 1788031226 | 30° C | 68% | 1022.7 hPa | 0 mm | - | 632 W/m² | - |
| 1788030921 | 29.44° C | 69% | 1022.8 hPa | 0 mm | - | 641 W/m² | - |
| 1788030620 | 28.89° C | 72% | 1023 hPa | 0 mm | - | 635 W/m² | - |
| 1788030320 | 28.89° C | 73% | 1023 hPa | 0 mm | - | 146 W/m² | - |
| 1788030016 | 28.89° C | 73% | 1023.1 hPa | 0 mm | - | 102 W/m² | - |
| 1788029710 | 29.44° C | 70% | 1023.1 hPa | 0 mm | - | 126 W/m² | - |
| 1788029405 | 30° C | 67% | 1023.5 hPa | 0 mm | - | 285 W/m² | - |
| 1788029104 | 30° C | 65% | 1023.5 hPa | 0 mm | - | 204 W/m² | - |
| 1788028799 | 30° C | 66% | 1023.6 hPa | 0 mm | - | 207 W/m² | - |
| 1788028493 | 30° C | 67% | 1023.7 hPa | 0 mm | - | 182 W/m² | - |
| 1788028188 | 30° C | 67% | 1023.5 hPa | 0 mm | - | 754 W/m² | - |
| 1788027889 | 30° C | 67% | 1023.5 hPa | 0 mm | - | 715 W/m² | - |
| 1788027583 | 30° C | 67% | 1023.6 hPa | 0 mm | - | 702 W/m² | - |
| 1788027278 | 30° C | 71% | 1023.6 hPa | 0 mm | - | 710 W/m² | - |
| 1788026978 | 29.44° C | 68% | 1023.8 hPa | 0 mm | - | 703 W/m² | - |
| 1788026672 | 30° C | 66% | 1023.9 hPa | 0 mm | - | 693 W/m² | - |
| 1788026368 | 29.44° C | 68% | 1023.9 hPa | 0 mm | - | 671 W/m² | - |
| 1788026064 | 29.44° C | 69% | 1024.2 hPa | 0 mm | - | 674 W/m² | - |
* Rain latest hour (hover to see other rain measurements)
** Current wind speed in m/s (hover to see current wind gust speed)